Simultaneous Nadir Overpasses (SNOs) Predictions

Prediction of SNOs between METOP-A and TERRA Satellite Orbit:

Table of predicted SNOs for the next 14.0 days since TLE Epoch: 10/19/2019
Index Date (METOP-A) Time (METOP-A) Lat,Lon (METOP-A) SZA (METOP-A ) Date (TERRA) Time (TERRA) Lat,Lon (TERRA) SZA (TERRA ) Distance(km) Time Diff (sec)
1 10/20/2019 11:12:07 -81.45,-118.40 84.87 10/20/2019 11:12:18 -81.45,-118.21 84.84 3.10 11
2 10/20/2019 12:02:47 81.44, 49.32 95.19 10/20/2019 12:01:45 81.44, 49.17 95.14 2.61 62
3 10/23/2019 06:46:30 -81.45, -52.02 83.87 10/23/2019 06:46:33 -81.44, -51.91 83.86 1.84 3
4 10/23/2019 07:37:10 81.44, 115.70 96.19 10/23/2019 07:35:59 81.45, 115.83 96.18 2.27 71
5 10/26/2019 01:30:14 81.45,-153.26 97.07 10/26/2019 01:31:22 81.44,-153.07 97.13 3.24 68
6 10/26/2019 02:20:54 -81.45, 14.35 82.89 10/26/2019 02:20:49 -81.44, 14.54 82.87 3.15 5
7 10/28/2019 21:04:37 81.45, -86.52 98.06 10/28/2019 21:05:38 81.45, -86.49 98.10 0.65 61
8 10/28/2019 21:55:17 -81.44, 81.11 81.90 10/28/2019 21:55:05 -81.45, 81.15 81.89 1.24 12
9 10/31/2019 16:39:00 81.45, -20.19 98.98 10/31/2019 16:39:54 81.45, -20.15 99.01 0.68 54




NCC Satellite Simultaneous Nadir Overpasses (SNOs) Prediction Service
